CZ-3B R/B, 60328

Orbit data source: Space-Track

CZ-3B R/B, 60328 is space debris in HEO originally from a launch on Thu, 01 Aug 2024 UTC launched from the Xichang Space Center, China (XSC). Debris objects in space refer to the collection of defunct objects orbiting the Earth. Examples of debris include non-operational satellites, rocket bodies, and fragments generated from explosions, collisions, or faulty payload assembly.

Loading next visibility...
CZ-3B R/B details
Identifier
60328, 2024-135B
Orbit
HEO
Last TLE update2 months ago
Origin
Flag of CNCASC (CN / PRC)
ManufacturerCALT
MissionSpacecraft
Bus & MotorCZ-3A STAGE 3, Unknown motor
Mass~2,800 kg wet, ~2,800 kg dry
Launch date (UTC)
2024-08-01 (5 months ago)
Launch vehicleUnknown
Launch site
Xichang Space Center, China (XSC)
Object type
Payload
Rocket body
Debris
Shape & HBRUnknown
Radar Cross SectionLarge (>1 m²)

Expand to show TLE details & history

TLE from 2 months ago
0 CZ-3B R/B
1 60328U 24135B   24318.52791732  .00064576 -49806-6  63802-3 0  9992
2 60328  26.8897 101.8473 7051197 253.1331  24.2081  2.63467322  2625
Epoch: 2024-11-13T12:40Z
Definitive object data (Epoch: 2024-11-13T12:40:12.056Z)
Latitude-0°
Longitude-141.43604°
Altitude7,607.875 km
Speed6.245 km/s
True Right ascension06h 46m 56s
True Declination0° 00' 00"
Sunlit
Object was in daylight at TLE epoch
Visualization TLE readout
Latitude-13.6268°
Longitude37.94498°
Altitude4,653.643 km
Speed7.341 km/s
Apparent Right ascension19h 01m 37s
Apparent Declination-23° 13' 09"
Sunlit
Object is in daylight
Visualization observer readout
Local Sidereal Time07:39:19
Azimuth28.305° NE
Elevation-71.501°
Doppler factor1
Orbital elements
Apogee altitude31,386.181 km
Perigee altitude152.756 km
Semi-major axis22,147.605 km
Eccentricity0.7051197
Inclination26.8897°
RAAN101.8473°
Arg. of periapsis253.1331°
True anomaly107.08174°
Mean anomaly24.2081°
Eccentric anomaly58.74506°
Mean motion0.6585 °/min
BSTAR0.00063802
Orbital period546.7 mins
Loading maneuver chart data...
Loading historical data...
Loading historical data...
Loading historical data...
Loading historical data...
Loading historical data...
Loading historical data...
Loading historical data...
Other satellites on launch #135 in the year 2024 (2024-08-01 UTC)

CZ-3B R/B Visibility forecast

Observer location: undefined°, undefined

Span
Click to sort rows by Start time (UTC) header in descending order
Start Az.
Max El. time (UTC)
Max El. Az.
Max El.
End time (UTC)
End Az.
473 mins2025-01-15 07:46:50.932Z232.626° WSW2025-01-15 08:43:50.932Z151.481° SSE43.035°2025-01-15 15:39:50.932Z152.062° SSE
|